User: anonymous   Login
Location: ????????
(37.9452°N, 23.1472°E)
Time: 09:37:11
(UTC+00:00)
Language:

OAO 3 Rocket - Orbit

View from above orbital plane
View from above orbital plane
View from above satellite
View from above satellite

Ground track
Ground track

The orbit data is extracted from the following two-line orbital elements,

1  6155U 72065B   24165.14168780  .00002070  00000-0  30704-3 0  9996
2  6155  35.0032  56.5524 0034360  80.0545 280.4030 14.74491461768343
Epoch (UTC): 13 June 2024 03:24:01
Eccentricity: 0.0034360
inclination: 35.0032°
perigee height: 622 km
apogee height: 671 km
right ascension of ascending node: 56.5524°
argument of perigee: 80.0545°
revolutions per day: 14.74491461
mean anomaly at epoch: 280.4030°
orbit number at epoch: 76834

The dashed part of the orbit path shows where the satellite is in the earth's shadow,  

DLR